User: anonymous   Login
Location: Peebles
(55.6412°N, 3.1714°W)
Time: 15:26:30
(UTC+01:00)
Language:

Tiangong - Orbit

View from above orbital plane
View from above orbital plane
View from above satellite
View from above satellite

Ground track
Ground track

The orbit data is extracted from the following two-line orbital elements,

1 48274U 21035A   22274.24363487  .00009428  00000-0  11089-3 0  9995
2 48274  41.4723 292.6879 0003079 310.9626 150.4053 15.61467211 81356
Epoch (UTC): 01 October 2022 05:50:50
Eccentricity: 0.0003079
inclination: 41.4723°
perigee height: 381 km
apogee height: 385 km
right ascension of ascending node: 292.6879°
argument of perigee: 310.9626°
revolutions per day: 15.61467211
mean anomaly at epoch: 150.4053°
orbit number at epoch: 8135

The dashed part of the orbit path shows where the satellite is in the earth's shadow,  

DLR